www.pogodaiklimat.ru

Погода и климат >> Архив погоды >> Венгрия >> Poroszlo


ПОГОДА в Poroszlo

  • Прогноз погоды в Poroszlo
  • Монитор погоды в Poroszlo
  • Климат города

АРХИВ ПОГОДЫ в Poroszlo

Время (UTC), дата Ветер
(напр.,м/с)
 
Видим.   Явления Облачность Т
(С)
Тd
(С)
f
(%)
Тe
(С)
Тes
(С)
Комфортность P
(гПа)
Po
(гПа)
Тmin
(С)
Tmax
(С)
R
(мм)
R24
(мм)
S
(см)
01 11.10 штиль 0 н/о н/о +7.6 +5.7 88 +7 +7 1025.5 1014.3
02 11.10 С 1 н/о н/о +6.9 +5.5 91 +6 +6 1025.3 1014.1
03 11.10 СВ 1 н/о н/о +8.4 +7.2 92 +8 +8 1025.0 1013.8
04 11.10 СВ 2 н/о н/о +9.3 +7.7 90 +8 +8 1025.0 1013.9
05 11.10 СВ 2 н/о н/о +9.3 +7.3 87 +8 +8 1025.0 1013.9
06 11.10 СВ 3 н/о н/о +10.6 +8.0 84 +9 +9 1025.2 1014.1 +6.6
07 11.10 В 2 н/о н/о +13.0 +8.9 76 +12 +12 1025.9 1014.9
08 11.10 СВ 2 н/о н/о +15.0 +10.2 73 +15 +15 1025.9 1015.0
09 11.10 СВ 2 н/о н/о +17.8 +10.9 64 +18 +18 1025.8 1015.0
10 11.10 ЮВ 2 н/о н/о +18.9 +11.0 60 +20 +20 1025.9 1015.1
11 11.10 ЮВ 2 н/о н/о +20.2 +11.4 57 +23 +23 комфорт 1025.3 1014.6
12 11.10 В 1 н/о н/о +21.3 +11.6 54 +23 +23 комфорт 1024.9 1014.2
13 11.10 В 2 н/о н/о +22.3 +11.7 51 +25 +25 комфорт 1024.4 1013.7
14 11.10 В 2 н/о н/о +22.6 +11.7 50 +25 +25 комфорт 1024.1 1013.5
15 11.10 В 2 н/о н/о +22.1 +11.5 51 +24 +24 комфорт 1023.9 1013.2
16 11.10 СВ 1 н/о н/о +20.3 +11.2 56 +23 +23 комфорт 1024.0 1013.3
17 11.10 В 1 н/о н/о +17.4 +11.0 66 +18 +18 1024.4 1013.6
18 11.10 В 1 н/о н/о +15.8 +12.0 78 +17 +17 1024.7 1013.8 +22.9
19 11.10 В 2 н/о н/о +14.3 +11.3 82 +14 +14 1025.1 1014.1
20 11.10 СВ 2 н/о н/о +12.5 +9.5 82 +12 +12 1025.5 1014.5
21 11.10 С 1 н/о н/о +10.8 +8.9 88 +10 +10 1025.9 1014.8
22 11.10 штиль 0 н/о н/о +9.1 +7.4 89 +8 +8 1026.3 1015.1
23 11.10 СВ 2 н/о н/о +10.4 +8.3 87 +9 +9 1026.6 1015.5
00 12.10 СВ 2 н/о н/о +10.6 +8.0 84 +9 +9 1026.7 1015.6
01 12.10 СВ 2 н/о н/о +10.6 +8.2 85 +9 +9 1026.7 1015.6
02 12.10 СВ 1 н/о н/о +10.0 +7.4 84 +10 +10 1026.9 1015.8
03 12.10 СВ 2 н/о н/о +9.9 +7.2 83 +8 +8 1027.1 1016.0
04 12.10 СВ 2 н/о н/о +9.0 +5.9 81 +7 +7 1027.6 1016.4
05 12.10 С 2 н/о н/о +7.4 +5.4 87 +5 +5 1028.0 1016.7
06 12.10 СВ 2 н/о н/о +9.5 +6.8 83 +8 +8 1028.4 1017.2 +7.3
07 12.10 СВ 2 н/о н/о +11.4 +6.7 73 +10 +10 1029.1 1018.0
08 12.10 СВ 2 н/о н/о +13.7 +7.2 65 +13 +13 1029.3 1018.3
09 12.10 СВ 3 н/о н/о +15.9 +7.7 58 +16 +16 1029.4 1018.5
10 12.10 СВ 3 н/о н/о +18.2 +7.3 49 +18 +18 1029.4 1018.5
11 12.10 С 3 н/о н/о +20.2 +7.2 43 +21 +21 комфорт 1028.9 1018.1
12 12.10 С 3 н/о н/о +22.1 +7.1 38 +23 +23 комфорт 1028.2 1017.5
13 12.10 С 3 н/о н/о +23.3 +7.0 35 +24 +24 комфорт 1027.6 1016.9
14 12.10 В 3 н/о н/о +22.9 +7.5 37 +24 +24 комфорт 1027.5 1016.8
15 12.10 В 2 н/о н/о +22.5 +6.7 36 +23 +23 комфорт 1027.3 1016.6
16 12.10 СВ 1 н/о н/о +20.7 +5.5 37 +23 +23 комфорт 1027.3 1016.6
17 12.10 С 1 н/о н/о +14.8 +5.6 54 +15 +15 1027.7 1016.7
18 12.10 С 1 н/о н/о +13.1 +5.3 59 +13 +13 1028.0 1017.0 +23.5
19 12.10 СВ 2 н/о н/о +13.8 +5.7 58 +13 +13 1028.3 1017.3
20 12.10 СВ 2 н/о н/о +13.1 +6.0 62 +13 +13 1028.5 1017.5
21 12.10 СВ 2 н/о н/о +12.7 +5.8 63 +12 +12 1028.9 1017.8
22 12.10 СВ 1 н/о н/о +11.2 +5.7 69 +11 +11 1029.1 1018.0
23 12.10 СВ 1 н/о н/о +11.3 +5.6 68 +11 +11 1029.0 1017.9
00 13.10 СВ 3 н/о н/о +11.6 +5.9 68 +10 +10 1029.0 1017.9
01 13.10 СВ 1 н/о н/о +8.2 +4.4 77 +8 +8 1029.4 1018.2
02 13.10 СВ 1 н/о н/о +9.0 +5.7 80 +8 +8 1029.4 1018.2
03 13.10 С 1 н/о н/о +7.1 +4.2 82 +6 +6 1029.6 1018.3
04 13.10 н/о н/о +5.7 +4.0 89 1029.8 1018.5
05 13.10 В 1 н/о н/о +7.0 +5.2 88 +6 +6 1029.7 1018.4
06 13.10 СВ 2 н/о н/о +8.0 +5.8 86 +6 +6 1030.0 1018.7 +5.5
07 13.10 СВ 2 н/о н/о +11.3 +6.8 74 +10 +10 1030.1 1019.0
08 13.10 СВ 3 н/о н/о +13.9 +7.0 63 +13 +13 1030.1 1019.1
09 13.10 В 2 н/о н/о +16.2 +7.7 57 +16 +16 1030.0 1019.1
10 13.10 В 2 н/о н/о +18.8 +7.9 49 +20 +20 1029.8 1019.0
11 13.10 В 2 н/о н/о +20.4 +7.8 44 +22 +22 комфорт 1029.4 1018.6
12 13.10 ЮВ 2 н/о н/о +21.9 +7.3 39 +23 +23 комфорт 1028.6 1017.9
13 13.10 ЮВ 2 н/о н/о +23.0 +7.5 37 +24 +24 комфорт 1028.0 1017.3
14 13.10 В 2 н/о н/о +23.1 +7.2 36 +24 +24 комфорт 1027.3 1016.6
15 13.10 В 1 н/о н/о +22.5 +7.1 37 +23 +23 комфорт 1026.9 1016.2
16 13.10 В 1 н/о н/о +19.9 +8.3 47 +22 +22 комфорт 1027.0 1016.2
17 13.10 В 1 н/о н/о +16.2 +9.4 64 +17 +17 1027.1 1016.2
18 13.10 В 1 н/о н/о +14.4 +10.2 76 +15 +15 1027.0 1016.0 +23.5
19 13.10 СЗ 1 н/о н/о +10.6 +7.3 80 +10 +10 1027.1 1016.0
20 13.10 С 1 н/о н/о +9.8 +5.2 73 +9 +9 1027.1 1015.9
21 13.10 СВ 1 н/о н/о +10.9 +5.2 68 +11 +11 1027.1 1016.0
22 13.10 С 1 н/о н/о +10.6 +5.2 69 +10 +10 1026.8 1015.7
23 13.10 СВ 1 н/о н/о +9.0 +4.8 75 +9 +9 1027.2 1016.0
00 14.10 СВ 1 н/о н/о +9.4 +5.4 76 +9 +9 1027.3 1016.1
01 14.10 СВ 1 н/о н/о +9.6 +5.4 75 +9 +9 1026.9 1015.7
02 14.10 В 1 н/о н/о +8.1 +5.2 82 +7 +7 1027.0 1015.8
03 14.10 СВ 2 н/о н/о +8.5 +5.6 82 +7 +7 1026.8 1015.6
04 14.10 В 1 н/о н/о +8.5 +5.3 80 +8 +8 1026.9 1015.7
05 14.10 СВ 1 н/о н/о +6.9 +5.2 89 +6 +6 1027.0 1015.7
06 14.10 З 2 н/о н/о +4.2 +2.9 91 +1 +1 1027.4 1016.0 +4.1
07 14.10 С 1 н/о н/о +9.4 +6.5 82 +9 +9 1027.8 1016.6
08 14.10 С 2 н/о н/о +12.4 +6.9 69 +12 +12 1027.6 1016.5
09 14.10 СВ 2 н/о н/о +15.6 +7.4 58 +16 +16 1027.1 1016.2
10 14.10 В 2 н/о н/о +16.8 +8.0 56 +17 +17 1027.2 1016.3
11 14.10 С 1 н/о н/о +19.3 +6.4 43 +21 +21 комфорт 1026.3 1015.5
12 14.10 СВ 1 н/о н/о +20.7 +6.6 40 +23 +23 комфорт 1025.5 1014.8
13 14.10 СВ 2 н/о н/о +21.4 +7.3 40 +22 +22 комфорт 1024.8 1014.1
14 14.10 В 2 н/о н/о +21.3 +7.2 40 +22 +22 комфорт 1024.4 1013.7
15 14.10 В 2 н/о н/о +20.7 +7.7 43 +23 +23 комфорт 1023.9 1013.2
16 14.10 штиль 0 н/о н/о +17.9 +7.9 52 +18 +18 1023.9 1013.1
17 14.10 штиль 0 н/о н/о +13.4 +7.8 69 +13 +13 1024.1 1013.1
18 14.10 штиль 0 н/о н/о +10.9 +5.9 71 +10 +10 1024.1 1013.0 +21.7
19 14.10 штиль 0 н/о н/о +9.5 +5.1 74 +9 +9 1024.4 1013.3
20 14.10 штиль 0 н/о н/о +8.9 +4.7 75 +8 +8 1024.6 1013.4
21 14.10 С 1 н/о н/о +7.9 +4.5 79 +7 +7 1024.7 1013.5
22 14.10 С 1 н/о н/о +6.8 +3.8 81 +6 +6 1024.7 1013.5
23 14.10 СВ 2 н/о н/о +9.2 +4.8 74 +8 +8 1024.9 1013.7
00 15.10 СВ 2 н/о н/о +9.5 +5.5 76 +8 +8 1025.1 1014.0
01 15.10 ЮВ 2 н/о н/о +9.0 +5.6 79 +7 +7 1025.4 1014.2
02 15.10 СВ 1 н/о н/о +6.4 +4.7 89 +5 +5 1025.2 1013.9
03 15.10 С 2 н/о н/о +5.6 +3.9 89 +3 +3 1025.2 1013.9
04 15.10 С 1 н/о н/о +5.3 +3.6 89 +4 +4 1025.1 1013.8
05 15.10 СВ 2 н/о н/о +5.6 +4.1 90 +3 +3 1025.3 1014.0
06 15.10 С 1 н/о н/о +5.3 +3.8 90 +4 +4 1025.4 1014.1 +4.7
07 15.10 СВ 3 н/о н/о +8.3 +4.3 76 +6 +6 1025.5 1014.3
08 15.10 СВ 3 н/о н/о +11.1 +5.0 66 +9 +9 1025.4 1014.3
09 15.10 СВ 3 н/о н/о +13.9 +4.8 54 +13 +13 1025.3 1014.3
10 15.10 В 2 н/о н/о +16.9 +4.6 44 +17 +17 1025.0 1014.1
11 15.10 В 2 н/о н/о +18.1 +5.0 42 +19 +19 1024.3 1013.5
12 15.10 В 2 н/о н/о +19.9 +4.4 36 +21 +21 комфорт 1023.8 1013.1
13 15.10 В 2 н/о н/о +21.1 +4.2 33 +21 +21 комфорт 1023.1 1012.4
14 15.10 В 2 н/о н/о +21.2 +3.0 30 +21 +21 комфорт 1022.7 1012.0
15 15.10 В 1 н/о н/о +21.0 +1.8 28 +22 +22 комфорт 1022.6 1011.9
16 15.10 СВ 1 н/о н/о +18.2 +2.9 36 +19 +19 1022.6 1011.8
17 15.10 СВ 2 н/о н/о +14.7 +3.2 46 +15 +15 1023.0 1012.1
18 15.10 штиль 0 н/о н/о +11.1 +3.9 61 +11 +11 1023.3 1012.2 +21.4
19 15.10 СВ 1 н/о н/о +10.9 +2.7 57 +11 +11 1023.3 1012.2
20 15.10 СВ 1 н/о н/о +9.3 +2.6 63 +9 +9 1023.5 1012.4
21 15.10 СВ 1 н/о н/о +8.3 +2.3 66 +8 +8 1023.8 1012.6
22 15.10 С 1 н/о н/о +6.1 +1.6 73 +5 +5 1024.0 1012.7
23 15.10 СВ 1 н/о н/о +5.9 +2.0 76 +5 +5 1024.1 1012.8
00 16.10 СВ 1 н/о н/о +5.0 +1.5 78 +4 +4 1024.1 1012.8
01 16.10 СВ 1 н/о н/о +5.4 +2.2 80 +4 +4 1024.1 1012.8
02 16.10 СВ 1 н/о н/о +6.5 +2.6 76 +6 +6 1023.7 1012.5
03 16.10 СВ 1 н/о н/о +6.6 +2.5 75 +6 +6 1024.0 1012.8
04 16.10 СВ 1 н/о н/о +5.4 +2.1 79 +4 +4 1024.2 1012.9
05 16.10 СВ 2 н/о н/о +4.5 +2.0 84 +2 +2 1024.3 1013.0
06 16.10 СВ 1 н/о н/о +5.0 +2.0 81 +4 +4 1024.4 1013.1 +4.4
07 16.10 В 2 н/о н/о +8.6 +3.8 72 +7 +7 1024.9 1013.7
08 16.10 В 2 н/о н/о +12.0 +3.8 57 +11 +11 1024.8 1013.8
09 16.10 СВ 2 н/о н/о +15.6 +4.3 47 +16 +16 1024.5 1013.6
10 16.10 В 1 н/о н/о +17.9 +3.8 39 +19 +19 1024.5 1013.7
11 16.10 ЮВ 1 н/о н/о +19.6 +2.9 33 +21 +21 комфорт 1024.1 1013.4
12 16.10 В 1 н/о н/о +21.0 +1.3 27 +22 +22 комфорт 1023.7 1013.0
13 16.10 В 1 н/о н/о +21.6 +2.8 29 +22 +22 комфорт 1023.3 1012.6
14 16.10 СВ 1 н/о н/о +22.1 +2.8 28 +22 +22 комфорт 1022.9 1012.3
15 16.10 СВ 1 н/о н/о +21.6 +2.8 29 +22 +22 комфорт 1022.9 1012.2
16 16.10 СВ 1 н/о н/о +17.9 +3.0 37 +19 +19 1023.0 1012.2
17 16.10 В 1 н/о н/о +15.0 +4.1 48 +16 +16 1023.2 1012.3
18 16.10 СВ 1 н/о н/о +13.1 +3.2 51 +14 +14 1023.5 1012.5 +22.2
19 16.10 СВ 1 н/о н/о +11.8 +3.1 55 +12 +12 1023.6 1012.6
20 16.10 СВ 2 н/о н/о +11.4 +2.7 55 +11 +11 1023.7 1012.6
21 16.10 СВ 2 н/о н/о +10.4 +2.5 58 +9 +9 1023.8 1012.7
22 16.10 СВ 1 н/о н/о +9.2 +2.8 64 +9 +9 1023.6 1012.5
23 16.10 С 1 н/о н/о +8.5 +2.5 66 +8 +8 1023.8 1012.6
00 17.10 СВ 2 н/о н/о +8.8 +3.0 67 +7 +7 1023.8 1012.6
01 17.10 В 2 н/о н/о +8.1 +2.6 68 +6 +6 1023.7 1012.5
02 17.10 В 1 н/о н/о +7.4 +2.5 71 +7 +7 1023.7 1012.5
03 17.10 СВ 1 н/о н/о +6.7 +2.6 75 +6 +6 1023.6 1012.4
04 17.10 СВ 2 н/о н/о +6.8 +2.7 75 +5 +5 1023.6 1012.4
05 17.10 СВ 2 н/о н/о +6.6 +2.7 76 +4 +4 1023.6 1012.4
06 17.10 СВ 3 н/о н/о +7.1 +3.0 75 +4 +4 1023.7 1012.5 +6.1
07 17.10 СВ 2 н/о н/о +8.8 +3.6 70 +7 +7 1024.0 1012.8
08 17.10 В 2 н/о н/о +12.2 +4.7 60 +11 +11 1023.9 1012.9
09 17.10 СВ 2 н/о н/о +15.0 +4.4 49 +15 +15 1023.6 1012.7
10 17.10 СВ 1 н/о н/о +17.9 +4.8 42 +19 +19 1023.4 1012.6
11 17.10 В 2 н/о н/о +19.5 +4.0 36 +21 +21 комфорт 1022.5 1011.8
12 17.10 В 2 н/о н/о +21.1 +4.2 33 +21 +21 комфорт 1021.7 1011.0
13 17.10 В 2 н/о н/о +21.7 +3.9 31 +22 +22 комфорт 1021.3 1010.7
14 17.10 В 2 н/о н/о +22.1 +2.8 28 +22 +22 комфорт 1020.6 1010.0
15 17.10 В 1 н/о н/о +21.9 +3.1 29 +22 +22 комфорт 1020.4 1009.8
16 17.10 В 1 н/о н/о +18.7 +3.3 36 +20 +20 1020.4 1009.7
17 17.10 СВ 1 н/о н/о +15.5 +3.9 46 +16 +16 1020.7 1009.8
18 17.10 СВ 1 н/о н/о +12.8 +3.7 54 +13 +13 1020.6 1009.6 +22.5
19 17.10 штиль 0 н/о н/о +11.5 +2.8 55 +11 +11 1020.5 1009.5
20 17.10 С 1 н/о н/о +9.8 +2.6 61 +10 +10 1020.9 1009.8
21 17.10 СВ 1 н/о н/о +9.8 +2.2 59 +10 +10 1020.9 1009.8
22 17.10 штиль 0 н/о н/о +6.9 +0.8 65 +6 +6 1020.9 1009.7
23 17.10 СВ 1 н/о н/о +8.2 +2.0 65 +8 +8 1020.5 1009.4

 

Местоположение метеостанции Poroszlo (Венгрия): широта 47.65 долгота 20.63 высота над уровнем моря 92 м.

В архиве по умолчанию представлена погода в Poroszlo за последнюю неделю. Архивные данные за месяц целиком и за предыдущие месяцы, начиная с января 2011 года, Вы можете получить, выбрав интересующий диапазон дат из раскрывающегося списка и нажав кнопку "Ввод!".


*Определитесь, кто Вы:
робот инопланетянин человек

Внимание! Время в таблицах - всемирное. Для получения местного времени необходимо прибавить поправку, которая в Poroszlo равна 1 ч.

Смотрите также архив погоды в соседних городах и на ближайших метеорологических станциях:

Погода в Eger (Венгрия) (34 км)
Погода в Miskolc (Венгрия) (51 км)
Погода в Kekesteto (Венгрия) (52 км)
Погода в Szolnok (Венгрия) (66 км)
Погода в Debrecen (Венгрия) (75 км)
Погода в Josvafo (Венгрия) (93 км)
Погода в Szecseny (Польша) (98 км)
Погода в Nyiregyhaza (Венгрия) (100 км)
Погода в Lucenec (Словакия) (101 км)
Погода в Kecskemet (Венгрия) (105 км)

Пояснения к столбцам:

Ветер - указаны скорость ветра в м/с - средняя за 10 мин, порывы в срок и между сроками (в фигурных скобках) и направление, откуда дует ветер: С - северный, СВ - северо-восточный, В - восточный, ЮВ - юго-восточный, Ю - южный, ЮЗ - юго-западный, З - западный, СЗ - северо-западный.
Видимость - горизонтальная дальность видимости в метрах или километрах. При видимости от 1 до 10 км при отсутствии осадков обычно наблюдается дымка, при ухудшении видимости до 1 км и менее - туман. В сухую погоду видимость может ухудшаться дымом, пылью или мглою.
Явления - указаны атмосферные явления, наблюдавшиеся в срок или в последний час перед сроком; фигурными скобками обозначены явления, наблюдавшиеся между сроками (за 1-3 часа до срока); квадратными скобками обозначены град или гололедные отложения с указанием их диаметра в мм.
Облачность - указаны через наклонную черту общая и нижняя облачность в баллах и высота нижней границы облаков в метрах; квадратными скобками обозначены формы облаков: Ci - перистые, Cs - перисто-слоистые, Cc - перисто-кучевые, Ac - высококучевые, As - высокослоистые, Sc - слоисто-кучевые, Ns - слоисто-дождевые, Cu - кучевые, Cb - кучево-дождевые. Подробнее классификацию облаков см. в Атласе облаков (PDF).
T - Температура воздуха - температура, измеренная на высоте 2 м над землей.
Td - Температура точки росы - температура, при понижении до которой содержащийся в воздухе водяной пар достигнет насыщения.
f - Относительная влажность воздуха - влажноcть воздуха, измеренная на высоте 2 м над землей.
Te - Эффективная температура - температура, которую ощущает одетый по сезону человек в тени. Характеристика душности погоды. При расчете учитывается влияние влажности воздуха и скорости ветра на теплоощущения человека.
Tes - Эффективная температура на солнце - температура, которую ощущает человек, с поправкой на солнечный нагрев. Характеристика знойности погоды. Зависит от высоты солнца над горизонтом, облачности и скорости ветра. Ночью, в пасмурную погоду, а также при ветре 12 м/с и более поправка равна нулю.
P - Атмосферное давление - приведенное к уровню моря атмосферное давление.
Po - Атмосферное давление - измеренное на уровне метеостанции атмосферное давление.
Tmin - Минимальная температура - минимум температуры воздуха на высоте 2 м над землей.
Tmax - Максимальная температура - максимум температуры воздуха на высоте 2 м над землей.
R - Количество осадков - Количество выпавших осадков за период времени, мм. При наведении курсора мыши на число - период времени, за который выпало указанное количество осадков.
R24 - Количество осадков - Количество выпавших осадков за 24 часа, мм.
S - Снежный покров - Высота снежного покрова, см. При наведении курсора мыши на число - состояние снежного покрова и степень покрытия местности в баллах.